Location: Alexander
(41.3564°N, 81.5960°W)
Time: 09:22:29
(UTC+00:00)

Cosmos 1844 - Pass Details

Date: 24 January 2021
Orbit: 821 x 869 km, 70.9° (Epoch: 02 March)

Event Time Altitude Azimuth Distance (km) Brightness Sun altitude
Rises 23:36:39 0° 212° (SSW) 3,372 7.6 -12.0°
Reaches altitude 10° 23:39:06 10° 216° (SW) 2,448 6.9 -12.5°
Maximum altitude 23:44:40 62° 297° (WNW) 953 4.2 -13.5°
Drops below altitude 10° 23:50:21 10° 18° (NNE) 2,496 5.9 -14.5°
Enters shadow 23:52:27 - 21° (NNE) 3,283 6.4 -14.9°
